DLH5BC EDDF-EDDB

Flight info

Callsign DLH5BC
Flight time 0h 43m
Altitude 31000
Route TOBAK3W/25C TOBAK N858 SWALM T201 TAMEB T278 KLF KLF1R
Aircraft A320/M-SDE3FGHIRWY/LB1

Departure

Time 2026-05-06 19:10
Airport Frankfurt Main Airport (EDDF)

Arrival

Time 2026-05-06 19:53
Airport Berlin Brandenburg Airport (EDDB)
Time Latitude Longitude Altitude Speed Heading
2026-05-06 18:32 50.04763 8.57729 359 ft 0 kts 270°
2026-05-06 18:57 50.04763 8.57732 356 ft 2 kts 270°
2026-05-06 18:57 50.04763 8.57772 356 ft 4 kts 270°
2026-05-06 18:58 50.04762 8.57814 356 ft 4 kts 270°
2026-05-06 18:58 50.04763 8.57849 361 ft 4 kts 259°
2026-05-06 18:58 50.04772 8.57886 362 ft 4 kts 222°
2026-05-06 18:58 50.04794 8.57902 359 ft 4 kts 175°
2026-05-06 18:59 50.04819 8.57891 360 ft 4 kts 150°
2026-05-06 18:59 50.04839 8.57865 362 ft 4 kts 118°
2026-05-06 18:59 50.04849 8.57829 360 ft 2 kts 113°
2026-05-06 18:59 50.04850 8.57827 360 ft 0 kts 113°
2026-05-06 19:02 50.04850 8.57828 360 ft 1 kts 113°
2026-05-06 19:03 50.04815 8.57894 359 ft 12 kts 142°
2026-05-06 19:03 50.04794 8.57994 360 ft 9 kts 88°
2026-05-06 19:03 50.04809 8.58081 359 ft 8 kts 69°
2026-05-06 19:03 50.04824 8.58142 361 ft 4 kts 69°
2026-05-06 19:04 50.04830 8.58169 360 ft 4 kts 69°
2026-05-06 19:04 50.04850 8.58252 362 ft 12 kts 69°
2026-05-06 19:04 50.04889 8.58417 363 ft 20 kts 70°
2026-05-06 19:04 50.04927 8.58577 362 ft 0 kts 70°
2026-05-06 19:05 50.04933 8.58613 365 ft 14 kts 83°
2026-05-06 19:05 50.04874 8.58693 363 ft 10 kts 162°
2026-05-06 19:05 50.04827 8.58718 367 ft 5 kts 159°
2026-05-06 19:05 50.04775 8.58748 370 ft 14 kts 159°
2026-05-06 19:06 50.04676 8.58763 370 ft 13 kts 186°
2026-05-06 19:06 50.04643 8.58758 370 ft 0 kts 186°
2026-05-06 19:07 50.04620 8.58749 370 ft 12 kts 198°
2026-05-06 19:07 50.04488 8.58574 370 ft 22 kts 237°
2026-05-06 19:07 50.04476 8.58533 370 ft 0 kts 250°
2026-05-06 19:09 50.04476 8.58532 370 ft 1 kts 250°
2026-05-06 19:09 50.04415 8.58273 369 ft 61 kts 249°
2026-05-06 19:09 50.04191 8.57332 367 ft 122 kts 249°
2026-05-06 19:10 50.03845 8.55834 367 ft 168 kts 251°
2026-05-06 19:10 50.03452 8.54112 900 ft 171 kts 250°
2026-05-06 19:10 50.03019 8.52335 1508 ft 180 kts 251°
2026-05-06 19:10 50.02555 8.50518 2133 ft 186 kts 251°
2026-05-06 19:11 50.01931 8.48670 2673 ft 201 kts 227°
2026-05-06 19:11 50.00667 8.47725 3237 ft 213 kts 190°
2026-05-06 19:11 49.99181 8.47614 4027 ft 212 kts 186°
2026-05-06 19:11 49.97697 8.47410 4833 ft 211 kts 189°
2026-05-06 19:12 49.96266 8.47124 5579 ft 210 kts 194°
2026-05-06 19:12 49.94811 8.46513 6012 ft 228 kts 199°
2026-05-06 19:12 49.93232 8.45782 6496 ft 242 kts 200°
2026-05-06 19:12 49.91762 8.44544 7196 ft 243 kts 225°
2026-05-06 19:13 49.90832 8.42370 7953 ft 245 kts 252°
2026-05-06 19:13 49.90661 8.39745 8739 ft 250 kts 278°
2026-05-06 19:13 49.91327 8.37244 9516 ft 257 kts 306°
2026-05-06 19:13 49.92739 8.35500 10210 ft 266 kts 333°
2026-05-06 19:14 49.94502 8.34311 10535 ft 288 kts 335°
2026-05-06 19:14 49.96431 8.33068 10740 ft 312 kts 335°
2026-05-06 19:14 49.98518 8.31734 10929 ft 336 kts 335°
2026-05-06 19:14 50.00741 8.30316 11196 ft 354 kts 337°
2026-05-06 19:15 50.03149 8.29278 11780 ft 363 kts 349°
2026-05-06 19:15 50.05690 8.29024 12431 ft 370 kts
2026-05-06 19:15 50.07391 8.29312 12882 ft 374 kts
2026-05-06 19:15 50.10759 8.30857 13771 ft 380 kts 18°
2026-05-06 19:16 50.12421 8.31729 14173 ft 382 kts 18°
2026-05-06 19:16 50.14955 8.33061 14780 ft 385 kts 18°
2026-05-06 19:16 50.17505 8.34400 15397 ft 388 kts 17°
2026-05-06 19:16 50.20076 8.35753 16008 ft 391 kts 17°
2026-05-06 19:17 50.22665 8.37117 16629 ft 394 kts 17°
2026-05-06 19:17 50.25268 8.38488 17210 ft 397 kts 17°
2026-05-06 19:17 50.27863 8.40051 17806 ft 402 kts 25°
2026-05-06 19:17 50.30285 8.42289 18355 ft 406 kts 35°
2026-05-06 19:18 50.32465 8.45133 18867 ft 410 kts 41°
2026-05-06 19:18 50.34604 8.48110 19385 ft 413 kts 41°
2026-05-06 19:18 50.36759 8.51106 19886 ft 416 kts 41°
2026-05-06 19:18 50.38911 8.54097 20370 ft 419 kts 41°
2026-05-06 19:19 50.41101 8.57145 20857 ft 422 kts 41°
2026-05-06 19:19 50.43303 8.60209 21330 ft 425 kts 41°
2026-05-06 19:19 50.45530 8.63299 21785 ft 428 kts 40°
2026-05-06 19:19 50.47797 8.66351 22230 ft 431 kts 39°
2026-05-06 19:20 50.50108 8.69389 22666 ft 434 kts 39°
2026-05-06 19:20 50.52446 8.72427 22811 ft 435 kts 39°
2026-05-06 19:20 50.54775 8.75467 22828 ft 436 kts 40°
2026-05-06 19:20 50.56894 8.78878 22828 ft 436 kts 50°
2026-05-06 19:21 50.58645 8.82779 22826 ft 437 kts 59°
2026-05-06 19:21 50.60110 8.86974 22827 ft 437 kts 62°
2026-05-06 19:21 50.61568 8.91195 22993 ft 440 kts 62°
2026-05-06 19:21 50.63036 8.95436 23441 ft 442 kts 62°
2026-05-06 19:22 50.64499 8.99656 23791 ft 445 kts 62°
2026-05-06 19:22 50.65988 9.03942 24145 ft 447 kts 62°
2026-05-06 19:22 50.67481 9.08252 24485 ft 449 kts 62°
2026-05-06 19:22 50.68975 9.12582 24828 ft 451 kts 62°
2026-05-06 19:23 50.70475 9.16940 25167 ft 453 kts 63°
2026-05-06 19:23 50.71752 9.21484 25471 ft 454 kts 72°
2026-05-06 19:23 50.72608 9.26284 25788 ft 455 kts 78°
2026-05-06 19:23 50.73344 9.31150 26110 ft 457 kts 78°
2026-05-06 19:24 50.74366 9.35915 26412 ft 461 kts 65°
2026-05-06 19:24 50.75822 9.40436 26723 ft 463 kts 64°
2026-05-06 19:24 50.77303 9.44960 27012 ft 465 kts 64°
2026-05-06 19:24 50.78797 9.49490 27303 ft 466 kts 64°
2026-05-06 19:25 50.80305 9.54052 27575 ft 468 kts 64°
2026-05-06 19:25 50.81813 9.58629 27842 ft 470 kts 64°
2026-05-06 19:25 50.83301 9.63169 28107 ft 472 kts 64°
2026-05-06 19:25 50.84807 9.67786 28345 ft 474 kts 64°
2026-05-06 19:26 50.86319 9.72440 28578 ft 475 kts 64°
2026-05-06 19:26 50.87834 9.77103 28834 ft 477 kts 64°
2026-05-06 19:26 50.89351 9.81774 29175 ft 476 kts 64°
2026-05-06 19:26 50.90860 9.86431 29507 ft 475 kts 65°
2026-05-06 19:27 50.92367 9.91095 29832 ft 475 kts 65°
2026-05-06 19:27 50.93869 9.95751 30093 ft 475 kts 65°
2026-05-06 19:27 50.95375 10.00418 30333 ft 476 kts 65°
2026-05-06 19:27 50.96882 10.05092 30575 ft 477 kts 65°
2026-05-06 19:28 50.98389 10.09780 30761 ft 478 kts 65°
2026-05-06 19:28 51.01399 10.19198 30807 ft 479 kts 65°
2026-05-06 19:29 51.04405 10.28634 30803 ft 479 kts 65°
2026-05-06 19:29 51.07411 10.38084 30804 ft 479 kts 65°
2026-05-06 19:30 51.10468 10.47525 30801 ft 480 kts 64°
2026-05-06 19:30 51.13585 10.56928 30803 ft 480 kts 64°
2026-05-06 19:31 51.16597 10.66416 30796 ft 480 kts 65°
2026-05-06 19:31 51.20981 10.80688 30790 ft 480 kts 66°
2026-05-06 19:32 51.23921 10.90246 30783 ft 480 kts 65°
2026-05-06 19:32 51.26876 10.99809 30781 ft 480 kts 65°
2026-05-06 19:33 51.29825 11.09378 30783 ft 481 kts 66°
2026-05-06 19:33 51.32763 11.18995 30779 ft 481 kts 66°
2026-05-06 19:34 51.35692 11.28620 30785 ft 482 kts 66°
2026-05-06 19:34 51.38625 11.38279 30787 ft 482 kts 66°
2026-05-06 19:35 51.40084 11.43099 30575 ft 479 kts 66°
2026-05-06 19:35 51.41535 11.47904 29719 ft 479 kts 66°
2026-05-06 19:35 51.42983 11.52711 28826 ft 479 kts 66°
2026-05-06 19:35 51.44433 11.57532 28128 ft 481 kts 66°
2026-05-06 19:36 51.45883 11.62365 27452 ft 482 kts 66°
2026-05-06 19:36 51.47331 11.67211 26789 ft 480 kts 66°
2026-05-06 19:36 51.48766 11.72024 26154 ft 476 kts 66°
2026-05-06 19:36 51.50191 11.76797 25514 ft 471 kts 66°
2026-05-06 19:37 51.51582 11.81459 24891 ft 467 kts 66°
2026-05-06 19:37 51.52979 11.86151 24296 ft 462 kts 66°
2026-05-06 19:37 51.54355 11.90789 23710 ft 458 kts 66°
2026-05-06 19:37 51.55719 11.95393 23083 ft 454 kts 66°
2026-05-06 19:38 51.57069 11.99960 22394 ft 450 kts 66°
2026-05-06 19:38 51.58403 12.04484 21722 ft 446 kts 66°
2026-05-06 19:38 51.59720 12.08968 21070 ft 442 kts 66°
2026-05-06 19:38 51.61029 12.13425 20429 ft 439 kts 66°
2026-05-06 19:39 51.62319 12.17857 19799 ft 435 kts 66°
2026-05-06 19:39 51.63586 12.22241 19185 ft 433 kts 66°
2026-05-06 19:39 51.64851 12.26646 18582 ft 430 kts 66°
2026-05-06 19:39 51.66096 12.31016 17979 ft 428 kts 66°
2026-05-06 19:40 51.67328 12.35364 17304 ft 426 kts 66°
2026-05-06 19:40 51.68552 12.39688 16636 ft 423 kts 66°
2026-05-06 19:40 51.69756 12.43945 16013 ft 422 kts 66°
2026-05-06 19:40 51.70968 12.48230 15489 ft 417 kts 66°
2026-05-06 19:41 51.72166 12.52463 14980 ft 412 kts 66°
2026-05-06 19:41 51.73350 12.56644 14494 ft 408 kts 66°
2026-05-06 19:41 51.74678 12.60662 14003 ft 403 kts 60°
2026-05-06 19:41 51.76079 12.64549 13536 ft 398 kts 60°
2026-05-06 19:42 51.77492 12.68378 12999 ft 394 kts 59°
2026-05-06 19:42 51.78893 12.72136 12473 ft 389 kts 59°
2026-05-06 19:42 51.80284 12.75871 11961 ft 385 kts 59°
2026-05-06 19:42 51.81658 12.79577 11452 ft 382 kts 59°
2026-05-06 19:43 51.83007 12.83250 10953 ft 379 kts 59°
2026-05-06 19:43 51.84345 12.86904 10461 ft 376 kts 59°
2026-05-06 19:43 51.85651 12.90481 10000 ft 373 kts 59°
2026-05-06 19:43 51.86966 12.94080 9810 ft 368 kts 58°
2026-05-06 19:44 51.88532 12.97181 9821 ft 347 kts 41°
2026-05-06 19:44 51.90463 12.99304 9830 ft 327 kts 24°
2026-05-06 19:44 51.92558 13.00456 9762 ft 311 kts 13°
2026-05-06 19:44 51.94619 13.01306 9610 ft 301 kts 12°
2026-05-06 19:45 51.96639 13.02127 9192 ft 300 kts 12°
2026-05-06 19:45 51.98687 13.02954 8585 ft 306 kts 12°
2026-05-06 19:45 52.00749 13.03790 7988 ft 303 kts 12°
2026-05-06 19:45 52.02769 13.04614 7407 ft 296 kts 12°
2026-05-06 19:46 52.04742 13.05420 6835 ft 289 kts 12°
2026-05-06 19:46 52.06670 13.06206 6274 ft 282 kts 12°
2026-05-06 19:46 52.08558 13.06980 5684 ft 277 kts 12°
2026-05-06 19:46 52.10411 13.07743 5192 ft 273 kts 12°
2026-05-06 19:47 52.12243 13.08495 4950 ft 269 kts 12°
2026-05-06 19:47 52.14078 13.09247 4970 ft 273 kts 12°
2026-05-06 19:47 52.15916 13.10001 4971 ft 272 kts 12°
2026-05-06 19:47 52.17725 13.10744 4956 ft 272 kts 13°
2026-05-06 19:48 52.19550 13.11494 4592 ft 269 kts 12°
2026-05-06 19:48 52.21362 13.12244 4180 ft 268 kts 13°
2026-05-06 19:48 52.23156 13.12986 3778 ft 265 kts 14°
2026-05-06 19:48 52.24898 13.13866 3530 ft 256 kts 26°
2026-05-06 19:49 52.26308 13.15571 3166 ft 253 kts 50°
2026-05-06 19:49 52.27188 13.17980 2978 ft 241 kts 64°
2026-05-06 19:49 52.27908 13.20345 2988 ft 224 kts 64°
2026-05-06 19:49 52.28623 13.22560 2995 ft 218 kts 64°
2026-05-06 19:50 52.29251 13.24803 2996 ft 216 kts 68°
2026-05-06 19:50 52.29815 13.27085 2791 ft 217 kts 69°
2026-05-06 19:50 52.30364 13.29370 2508 ft 214 kts 69°
2026-05-06 19:50 52.30892 13.31573 2222 ft 202 kts 69°
2026-05-06 19:51 52.31390 13.33652 1973 ft 188 kts 68°
2026-05-06 19:51 52.31840 13.35529 1725 ft 168 kts 68°
2026-05-06 19:51 52.32240 13.37202 1485 ft 150 kts 68°
2026-05-06 19:51 52.32609 13.38742 1325 ft 140 kts 68°
2026-05-06 19:52 52.32960 13.40203 1085 ft 135 kts 68°
2026-05-06 19:52 52.33293 13.41628 877 ft 132 kts 69°
2026-05-06 19:52 52.33638 13.43034 712 ft 133 kts 66°
2026-05-06 19:52 52.33969 13.44445 495 ft 133 kts 68°
2026-05-06 19:53 52.34298 13.45819 334 ft 132 kts 66°
2026-05-06 19:53 52.34642 13.47225 181 ft 131 kts 68°
2026-05-06 19:53 52.34917 13.48400 160 ft 77 kts 70°
2026-05-06 19:53 52.35001 13.48767 158 ft 1 kts 69°
2026-05-06 19:54 52.35034 13.48903 157 ft 24 kts 68°
2026-05-06 19:54 52.35119 13.49172 157 ft 29 kts 53°
2026-05-06 19:54 52.35259 13.49394 155 ft 23 kts 39°
2026-05-06 19:54 52.35326 13.49491 152 ft 0 kts 40°
2026-05-06 19:55 52.35378 13.49558 150 ft 25 kts 37°
2026-05-06 19:55 52.35474 13.49778 148 ft 21 kts 68°
2026-05-06 19:56 52.35503 13.49901 148 ft 0 kts 70°
2026-05-06 19:56 52.35504 13.49906 148 ft 4 kts 70°
2026-05-06 19:56 52.35534 13.50034 148 ft 20 kts 70°
2026-05-06 19:56 52.35603 13.50294 148 ft 28 kts 70°
2026-05-06 19:57 52.35642 13.50481 148 ft 17 kts 70°
2026-05-06 19:57 52.35683 13.50655 148 ft 15 kts 69°
2026-05-06 19:57 52.35732 13.50807 150 ft 15 kts 36°
2026-05-06 19:57 52.35832 13.50788 152 ft 15 kts 338°
2026-05-06 19:58 52.35931 13.50727 153 ft 16 kts 340°
2026-05-06 19:58 52.36039 13.50660 153 ft 18 kts 340°
2026-05-06 19:58 52.36158 13.50585 153 ft 19 kts 337°
2026-05-06 19:58 52.36286 13.50506 153 ft 20 kts 335°
2026-05-06 19:59 52.36382 13.50441 153 ft 12 kts 341°
2026-05-06 19:59 52.36442 13.50402 153 ft 9 kts 338°
2026-05-06 19:59 52.36486 13.50427 154 ft 7 kts 72°
2026-05-06 19:59 52.36499 13.50496 154 ft 0 kts 69°
2026-05-06 20:00 52.36501 13.50505 154 ft 0 kts 68°
2026-05-06 20:00 52.36503 13.50512 154 ft 0 kts 68°